Weather History for Rayong, Thailand

Change the Weather History Date:

Wednesday, October 31, 2012

  Actual Average Record
Temperature  
Mean Temperature 84 °F -  
Max Temperature 89 °F 88 °F 95 °F (2006)
Min Temperature 78 °F 74 °F 73 °F (2010)
Cooling Degree Days 18    
Growing Degree Days 34 (Base 50)    
Moisture  
Dew Point 70 °F    
Average Humidity 64    
Maximum Humidity 78    
Minimum Humidity 46    
Precipitation  
Precipitation 0.00 in - - ()
Sea Level Pressure  
Sea Level Pressure 29.83 in    
Wind  
Wind Speed 3 mph ()    
Max Wind Speed 12 mph    
Max Gust Speed -    
Visibility 4.6 miles    
Events Rain , Thunderstorm    
Averages and records for this station are not official NWS values.
T = Trace of Precipitation, MM = Missing Value Source: Averaged Metar Reports

Daily Weather History Graph

Daily Weather History Graph

Search for Another Location

Airport:

Trip Planner

Search our weather history database for the weather conditions in past years. The results will help you decide how hot, cold, wet, or windy it might be!

Date:

Astronomy

Oct. 31, 2012 Rise Set
Actual Time 6:09 AM ICT 5:49 PM ICT
Civil Twilight 5:47 AM ICT 6:11 PM ICT
Nautical Twilight 5:22 AM ICT 6:36 PM ICT
Astronomical Twilight 4:56 AM ICT 7:02 PM ICT
Moon 6:55 PM ICT 7:07 AM ICT
Length of Visible Light 12h 24m
Length of Day
11h 40m
Full, 98% of the Moon is Illuminated
Oct 31
Full
Nov 7
Last Quarter
Nov 14
New
Nov 20
First Quarter
Nov 28
Full

Hourly Weather History & Observations

Time (ICT) Temp. Heat Index Dew Point Humidity Pressure Visibility Wind Dir Wind Speed Gust Speed Precip Events Conditions
12:00 AM 78.8 °F - 69.8 °F 74% 29.83 in 4.3 mi Calm Calm - N/A Rain Light Rain
12:30 AM 78.8 °F - 69.8 °F 74% 29.83 in 5.0 mi Calm Calm - N/A   Mostly Cloudy
4:00 AM 78.8 °F - 69.8 °F 74% 29.80 in 5.0 mi Calm Calm - N/A   Mostly Cloudy
4:30 AM 78.8 °F - 69.8 °F 74% 29.80 in 5.0 mi Calm Calm - N/A   Mostly Cloudy
5:00 AM 78.8 °F - 71.6 °F 78% 29.80 in 5.0 mi Calm Calm - N/A   Mostly Cloudy
5:30 AM 78.8 °F - 71.6 °F 78% 29.80 in 5.0 mi Calm Calm - N/A   Mostly Cloudy
6:00 AM 78.8 °F - 71.6 °F 78% 29.80 in 5.0 mi Calm Calm - N/A   Mostly Cloudy
6:30 AM 78.8 °F - 71.6 °F 78% 29.80 in 5.0 mi Calm Calm - N/A   Mostly Cloudy
7:00 AM 78.8 °F - 71.6 °F 78% 29.83 in 5.0 mi Calm Calm - N/A   Mostly Cloudy
7:30 AM 80.6 °F 84.6 °F 71.6 °F 74% 29.83 in 5.0 mi Calm Calm - N/A   Mostly Cloudy
8:00 AM 82.4 °F 87.2 °F 71.6 °F 70% 29.86 in 5.0 mi Calm Calm - N/A   Mostly Cloudy
8:30 AM 84.2 °F 89.6 °F 71.6 °F 66% 29.86 in 5.0 mi Calm Calm - N/A   Mostly Cloudy
9:00 AM 84.2 °F 88.4 °F 69.8 °F 62% 29.89 in 5.0 mi Calm Calm - N/A   Mostly Cloudy
9:30 AM 86.0 °F 89.4 °F 68.0 °F 55% 29.89 in 5.0 mi NNE 6.9 mph - N/A   Mostly Cloudy
10:00 AM 87.8 °F 92.6 °F 69.8 °F 55% 29.89 in 5.0 mi NE 4.6 mph - N/A   Mostly Cloudy
10:30 AM 87.8 °F 91.4 °F 68.0 °F 52% 29.89 in 5.0 mi NE 6.9 mph - N/A   Mostly Cloudy
11:00 AM 89.6 °F 94.7 °F 69.8 °F 52% 29.89 in 5.6 mi NE 6.9 mph - N/A   Mostly Cloudy
11:30 AM 89.6 °F 94.7 °F 69.8 °F 52% 29.86 in 5.6 mi ENE 6.9 mph - N/A   Mostly Cloudy
12:00 PM 87.8 °F 91.4 °F 68.0 °F 52% 29.83 in 5.6 mi NE 6.9 mph - N/A   Mostly Cloudy
12:30 PM 89.6 °F 92.2 °F 66.2 °F 46% 29.83 in 5.6 mi North 11.5 mph - N/A   Mostly Cloudy
1:00 PM 87.8 °F 91.4 °F 68.0 °F 52% 29.80 in 5.6 mi NNW 9.2 mph - N/A   Mostly Cloudy
1:30 PM 87.8 °F 93.8 °F 71.6 °F 58% 29.80 in 5.0 mi NNW 9.2 mph - N/A   Mostly Cloudy
2:00 PM 87.8 °F 91.4 °F 68.0 °F 52% 29.77 in 5.0 mi NNW 6.9 mph - N/A   Mostly Cloudy
2:30 PM 89.6 °F 93.4 °F 68.0 °F 49% 29.77 in 5.0 mi NW 6.9 mph - N/A   Mostly Cloudy
3:00 PM 89.6 °F 93.4 °F 68.0 °F 49% 29.77 in 5.0 mi NNE 9.2 mph - N/A   Mostly Cloudy
3:30 PM 89.6 °F 93.4 °F 68.0 °F 49% 29.77 in 5.0 mi NE 6.9 mph - N/A   Mostly Cloudy
4:00 PM 87.8 °F 91.4 °F 68.0 °F 52% 29.77 in 5.0 mi NE 6.9 mph - N/A   Mostly Cloudy
4:30 PM 87.8 °F 91.4 °F 68.0 °F 52% 29.77 in 5.0 mi NE 6.9 mph - N/A   Mostly Cloudy
5:00 PM 87.8 °F 90.4 °F 66.2 °F 49% 29.77 in 4.3 mi NE 6.9 mph - N/A Thunderstorm Thunderstorm
5:30 PM 86.0 °F 91.8 °F 71.6 °F 62% 29.77 in 4.3 mi South 3.5 mph - N/A Thunderstorm Thunderstorm
6:00 PM 86.0 °F 91.8 °F 71.6 °F 62% 29.80 in 3.7 mi South 4.6 mph - N/A Rain , Thunderstorm Light Thunderstorms and Rain
6:30 PM 84.2 °F 92.3 °F 75.2 °F 74% 29.80 in 3.7 mi SSW 3.5 mph - N/A Rain Light Rain
7:00 PM 84.2 °F 92.3 °F 75.2 °F 74% 29.83 in 3.7 mi South 4.6 mph - N/A Rain Light Rain
7:30 PM 82.4 °F 88.2 °F 73.4 °F 74% 29.83 in 3.1 mi Calm Calm - N/A Rain , Thunderstorm Light Thunderstorms and Rain
8:00 PM 82.4 °F 88.2 °F 73.4 °F 74% 29.86 in 3.1 mi Calm Calm - N/A Rain , Thunderstorm Light Thunderstorms and Rain
8:30 PM 80.6 °F 83.9 °F 69.8 °F 70% 29.86 in 3.1 mi Calm Calm - N/A Rain , Thunderstorm Light Thunderstorms and Rain
9:00 PM 80.6 °F 83.9 °F 69.8 °F 70% 29.89 in 3.1 mi Calm Calm - N/A Rain , Thunderstorm Light Thunderstorms and Rain
9:30 PM 80.6 °F 83.9 °F 69.8 °F 70% 29.89 in 3.7 mi North 6.9 mph - N/A Thunderstorm Thunderstorm
10:00 PM 80.6 °F 83.9 °F 69.8 °F 70% 29.86 in 3.7 mi North 3.5 mph - N/A Thunderstorm Thunderstorm
10:30 PM 80.6 °F 84.6 °F 71.6 °F 74% 29.89 in 3.7 mi NNW 6.9 mph - N/A Thunderstorm Thunderstorm
11:00 PM 80.6 °F 83.9 °F 69.8 °F 70% 29.89 in 3.7 mi NNE 4.6 mph - N/A   Mostly Cloudy
11:30 PM 80.6 °F 84.6 °F 71.6 °F 74% 29.86 in 3.7 mi NNW 4.6 mph - N/A   Mostly Cloudy